This is the latest recevied weather packets stored in our database for station/object KQ4UPF. If no packets are shown the sender has not sent any weather packets the latest 1 day(s).
| Time | Temp. | Humidity | Pressure | Rain* | Wind** | Luminosity | Snow |
|---|---|---|---|---|---|---|---|
| 1778077562 | 20° C | 92% | 1014.1 hPa | 0 mm | - | 227 W/m² | - |
| 1778077260 | 19.44° C | 93% | 1013.6 hPa | 1.78 mm | - | 247 W/m² | - |
| 1778076957 | 19.44° C | 92% | 1013.3 hPa | 3.05 mm | - | 126 W/m² | - |
| 1778076050 | 19.44° C | 92% | 1014.5 hPa | 3.56 mm | - | 31 W/m² | - |
| 1778072412 | 20.56° C | 83% | 1014.3 hPa | 0 mm | - | 15 W/m² | - |
| 1778072110 | 20.56° C | 82% | 1014.2 hPa | 0 mm | - | 14 W/m² | - |
| 1778071203 | 20.56° C | 82% | 1014 hPa | 0 mm | - | 13 W/m² | - |
| 1778069993 | 20.56° C | 81% | 1013.3 hPa | 0 mm | - | 14 W/m² | - |
| 1778069690 | 20.56° C | 80% | 1013.2 hPa | 0 mm | - | 9 W/m² | - |
| 1778069084 | 20.56° C | 80% | 1013.4 hPa | 0 mm | - | 9 W/m² | - |
| 1778067573 | 20.56° C | 81% | 1012.8 hPa | 0 mm | - | 7 W/m² | - |
| 1778064242 | 20.56° C | 77% | 1012.4 hPa | 0 mm | - | 0 W/m² | - |
| 1778063637 | 20.56° C | 77% | 1012 hPa | 0 mm | - | 0 W/m² | - |
| 1778063334 | 20.56° C | 77% | 1012.2 hPa | 0 mm | - | 0 W/m² | - |
| 1778063032 | 20.56° C | 77% | 1012 hPa | 0 mm | - | 0 W/m² | - |
| 1778062425 | 20.56° C | 75% | 1011.8 hPa | 0 mm | - | 0 W/m² | - |
| 1778061821 | 20.56° C | 75% | 1011.4 hPa | 0 mm | - | 0 W/m² | - |
| 1778061519 | 21.11° C | 75% | 1011.6 hPa | 0 mm | - | 0 W/m² | - |
| 1778061216 | 21.11° C | 74% | 1011.5 hPa | 0 mm | - | 0 W/m² | - |
| 1778060006 | 21.11° C | 74% | 1011.5 hPa | 0 mm | - | 0 W/m² | - |
| 1778059704 | 21.11° C | 73% | 1011.7 hPa | 0 mm | - | 0 W/m² | - |
| 1778059098 | 21.11° C | 73% | 1011.5 hPa | 0 mm | - | 0 W/m² | - |
| 1778058796 | 20.56° C | 73% | 1011.8 hPa | 0 mm | - | 0 W/m² | - |
| 1778057280 | 21.11° C | 72% | 1011.3 hPa | 0 mm | - | 0 W/m² | - |
| 1778056976 | 21.11° C | 73% | 1011.4 hPa | 0 mm | - | 0 W/m² | - |
* Rain latest hour (hover to see other rain measurements)
** Current wind speed in m/s (hover to see current wind gust speed)